User: anonymous   Login
Location: ???? ???? ?????
(31.2680°N, 31.7283°E)
Time: 20:59:07
(UTC+00:00)
Language:

Cosmos 2084 - Orbit

View from above orbital plane
View from above orbital plane
View from above satellite
View from above satellite

Ground track
Ground track

The orbit data is extracted from the following two-line orbital elements,

1 20663U 90055A   20269.84571219 +.00000015 +00000-0 +19405-4 0  9991
2 20663 062.7950 192.9882 0032613 306.2479 053.5601 14.92115209638330
Epoch (UTC): 25 September 2020 20:17:49
Eccentricity: 0.0032613
inclination: 62.7950°
perigee height: 568 km
apogee height: 614 km
right ascension of ascending node: 192.9882°
argument of perigee: 306.2479°
revolutions per day: 14.92115209
mean anomaly at epoch: 53.5601°
orbit number at epoch: 63833

The dashed part of the orbit path shows where the satellite is in the earth's shadow,  

DLR